Location: *
(45.9500°N, 9.0833°E)
Time: 00:26:28
(UTC+00:00)

Tiros 1 despin weight - Pass Details

Date: 24 June 2021
Orbit: 593 x 642 km, 48.2° (Epoch: 02 August)

Event Time Altitude Azimuth Distance (km) Brightness Sun altitude
Rises 05:03:37 0° 258° (WSW) 2,832 ? 12.9°
Reaches altitude 10° 05:05:55 10° 260° (W) 1,927 ? 13.3°
Maximum altitude 05:10:20 78° 346° (NNW) 610 ? 14.0°
Drops below altitude 10° 05:14:45 10° 74° (ENE) 1,925 ? 14.7°
Sets 05:17:02 0° 76° (ENE) 2,829 ? 15.1°
